This is the latest recevied weather packets stored in our database for station/object SQ9SMC-13. If no packets are shown the sender has not sent any weather packets the latest 10 day(s).
| Time | Temp. | Humidity | Pressure | Rain* | Wind** | Luminosity | Snow |
|---|---|---|---|---|---|---|---|
| 1777823404 | 24.44° C | 27% | 1017.1 hPa | 0 mm | - | 159 W/m² | - |
| 1777823103 | 25° C | 27% | 1017.1 hPa | 0 mm | - | 172 W/m² | - |
| 1777822802 | 25.56° C | 27% | 1017 hPa | 0 mm | - | 183 W/m² | - |
| 1777822503 | 25° C | 26% | 1017 hPa | 0 mm | - | 195 W/m² | - |
| 1777822204 | 25.56° C | 26% | 1017 hPa | 0 mm | - | 206 W/m² | - |
| 1777821903 | 25.56° C | 26% | 1017.2 hPa | 0 mm | - | 219 W/m² | - |
| 1777821603 | 25.56° C | 26% | 1017.2 hPa | 0 mm | - | 232 W/m² | - |
| 1777821303 | 25.56° C | 28% | 1017.3 hPa | 0 mm | - | 241 W/m² | - |
| 1777821003 | 25.56° C | 27% | 1017.3 hPa | 0 mm | - | 252 W/m² | - |
| 1777820704 | 25.56° C | 27% | 1017.4 hPa | 0 mm | - | 266 W/m² | - |
| 1777820402 | 25.56° C | 27% | 1017.2 hPa | 0 mm | - | 274 W/m² | - |
| 1777820105 | 25.56° C | 29% | 1017.3 hPa | 0 mm | - | 292 W/m² | - |
| 1777819803 | 25.56° C | 28% | 1017.4 hPa | 0 mm | - | 305 W/m² | - |
| 1777819504 | 25.56° C | 29% | 1017.4 hPa | 0 mm | - | 315 W/m² | - |
| 1777819203 | 25.56° C | 27% | 1017.6 hPa | 0 mm | - | 332 W/m² | - |
| 1777818903 | 25.56° C | 28% | 1017.5 hPa | 0 mm | - | 344 W/m² | - |
| 1777818603 | 26.11° C | 28% | 1017.5 hPa | 0 mm | - | 354 W/m² | - |
| 1777818305 | 25.56° C | 29% | 1017.5 hPa | 0 mm | - | 362 W/m² | - |
| 1777818002 | 25.56° C | 28% | 1017.8 hPa | 0 mm | - | 378 W/m² | - |
| 1777817705 | 25.56° C | 29% | 1017.7 hPa | 0 mm | - | 394 W/m² | - |
| 1777817403 | 25.56° C | 27% | 1017.8 hPa | 0 mm | - | 403 W/m² | - |
| 1777817105 | 26.11° C | 28% | 1017.9 hPa | 0 mm | - | 410 W/m² | - |
| 1777816805 | 26.11° C | 29% | 1017.9 hPa | 0 mm | - | 425 W/m² | - |
| 1777816502 | 26.11° C | 29% | 1018 hPa | 0 mm | - | 440 W/m² | - |
| 1777816203 | 25.56° C | 30% | 1017.9 hPa | 0 mm | - | 442 W/m² | - |
* Rain latest hour (hover to see other rain measurements)
** Current wind speed in m/s (hover to see current wind gust speed)